Location: Dodge City Co - Operative Exchange Grain Elevator Number 8
(38.1218°N, 99.7124°W)
Time: 03:09:34
(UTC+00:00)

NOSS 3-4 (A) - Pass Details

Date: 03 March 2021
Orbit: 866 x 1346 km, 63.4° (Epoch: 13 April)

Event Time Altitude Azimuth Distance (km) Brightness Sun altitude
Rises 12:08:12 0° 205° (SSW) 3,434 6.1 -12.4°
Reaches altitude 10° 12:10:38 10° 204° (SSW) 2,498 5.4 -12.0°
Maximum altitude 12:16:20 74° 120° (ESE) 917 3.5 -10.8°
Drops below altitude 10° 12:22:22 10° 36° (NE) 2,641 6.3 -9.7°
Sets 12:25:01 0° 35° (NE) 3,644 7.0 -9.1°
